User: anonymous   Login
Location: Albany
(35.0000°S, 118.0000°E)
Time: 14:44:14
(UTC-05:00)
Language:

Cosmos 1933 - Orbit

View from above orbital plane
View from above orbital plane
View from above satellite
View from above satellite

Ground track
Ground track

The orbit data is extracted from the following two-line orbital elements,

1 18958U 88020A   17054.90870244 +.00000864 +00000-0 +61879-4 0  9993
2 18958 082.5290 213.1355 0010517 313.1108 046.9237 15.03151790553343
Epoch (UTC): 23 February 2017 21:48:31
Eccentricity: 0.0010517
inclination: 82.5290°
perigee height: 550 km
apogee height: 564 km
right ascension of ascending node: 213.1355°
argument of perigee: 313.1108°
revolutions per day: 15.03151790
mean anomaly at epoch: 46.9237°
orbit number at epoch: 55334

The dashed part of the orbit path shows where the satellite is in the earth's shadow,  

DLR